Powrót do katalogu

YAOGAN-43 02F

AktywnyMilitariaVLEO
NORAD 60950·PAYLOAD·🇨🇳 China

Wystrzelony Sep 3, 2024 z Xichang Satellite Launch Center

Loading…

Następne Przeloty (najbliższe 24 godziny)

TLE

ŚwieżeSource: Space-Track

Epoka: Sep 14, 2026, 17:20 UTC

1 60950U 24156F   26257.72249338  .00006828  00000-0  28490-3 0  9998
2 60950  34.9946 354.7546 0001158  48.6410 311.4404 15.22978340113103

Śledź YAOGAN-43 02F w czasie rzeczywistym z AllMySat

Download on the App Store